Regional Weather Roundup
Issued by NWS

Home | Current Version | Previous Version | Text Only | Print | Product List | Glossary Off
Versions: 1 2 3 4 5 6 7 8 9 10 11 12 13 14 15 16 17 18 19 20 21 22 23 24 25 26 27 28 29 30 31 32 33 34 35 36 37 38 39 40 41 42 43 44 45 46 47 48 49 50

000
ASUS43 KLSX 221007
RWRMO

WEATHER SUMMARY FOR MISSOURI
NATIONAL WEATHER SERVICE SPRINGFIELD MO
500 AM CDT FRI AUG 22 2014

NOTE: "FAIR" INDICATES FEW OR NO CLOUDS BELOW 12,000 FEET WITH NO
       SIGNIFICANT WEATHER AND/OR OBSTRUCTIONS TO VISIBILITY.
       CURRENT SKY AND/OR WEATHER CONDITIONS ARE NOT AVAILABLE FOR
       CHILLICOTHE AND FARMINGTON.

MOZ001>031-035>038-043-044-053-054-221100-
...NORTHERN AND WESTERN MISSOURI...

CITY           SKY/WX    TMP DP  RH WIND       PRES   REMARKS
KANSAS CTY INT PTCLDY    77  71  82 S9        29.91S
KANSAS C DTWN  MOCLDY    82  71  69 S12       29.90F
LEE`S SUMMIT   PTCLDY    77  71  82 S8        29.93F
ST JOSEPH      MOCLDY    75  73  93 CALM      29.91S
CHILLICOTHE      N/A     79  72  79 SW5       29.93R
KIRKSVILLE     CLOUDY    79  71  76 W9        29.95R

$$
MOZ066>068-077>081-088>096-101>105-221100-
...SOUTHWEST MISSOURI...

CITY           SKY/WX    TMP DP  RH WIND       PRES   REMARKS
SPRINGFIELD    CLEAR     75  70  84 S10       30.00S
JOPLIN         CLEAR     78  70  76 S12       29.97S

$$
MOZ032>034-039>042-045>050-055>058-069>072-221100-
...CENTRAL MISSOURI...

CITY           SKY/WX    TMP DP  RH WIND       PRES   REMARKS
COLUMBIA       CLEAR     75  70  84 SW8       29.95F
JEFFERSON CITY CLEAR     78  69  73 S5        29.94F
ROLLA          CLEAR     73  68  84 SW9       29.98S
SEDALIA        CLEAR     77  70  79 S9        29.95F
WHITEMAN AFB   PTCLDY    75  53  45 S12       29.93F
OSAGE BEACH    CLEAR     75  68  78 SW5       29.97F

$$
MOZ051-052-059>065-221100-
...EAST CENTRAL MISSOURI...

CITY           SKY/WX    TMP DP  RH WIND       PRES   REMARKS
ST LOUIS INTL  NOT AVBL
SPIRIT OF STL  CLEAR     76  69  79 CALM      29.94S
ST CHARLES     CLEAR     74  70  87 S3        29.93S

$$
MOZ072>076-082>087-097>100-106>115-221100-
...SOUTH CENTRAL AND SOUTHEAST MISSOURI...

CITY           SKY/WX    TMP DP  RH WIND       PRES   REMARKS
CAPE GIRARDEAU CLEAR     73  71  93 S3        29.99R
FARMINGTON     CLEAR     77  70  78 SW8       30.01F
POPLAR BLUFF   CLEAR     73  70  90 SW5       29.98S
WEST PLAINS    CLEAR     73  68  84 CALM      30.03F

$$


USA.gov is the U.S. government's official web portal to all federal, state and local government web resources and services.